Erie, PA

4:39 PM EST on December 10, 2019 (GMT -0500)
Erie International

Weather History for KERI - October, 2019

Change the Weather History Date:

Tuesday, October 22, 2019

  Actual Average Record
Temperature  
Mean Temperature 58 °F 51 °F  
Max Temperature 64 °F 59 °F 84 °F (1979)
Min Temperature 52 °F 43 °F 30 °F (1969)
Degree Days  
Heating Degree Days 6 14  
Month to date heating degree days 166 241  
Since 1 July heating degree days 178 365  
Cooling Degree Days 0 0  
Month to date cooling degree days 22 7  
Year to date cooling degree days 847 636  
Growing Degree Days 8 (Base 50)    
Moisture  
Dew Point 51 °F    
Average Humidity 72    
Maximum Humidity 90    
Minimum Humidity 47    
Precipitation  
Precipitation 0.41 in 0.12 in 0.93 in (1965)
Month to date precipitation 1.82 2.96  
Year to date precipitation 31.45 33.40  
Snow  
Snow 0.00 in 0.00 in - ()
Month to date snowfall 0.0 0.0  
Since 1 July snowfall 0.0 0.0  
Since 1 September snowfall 0.0 0.0  
Snow Depth 0.00 in    
Sea Level Pressure  
Sea Level Pressure 29.75 in    
Wind  
Wind Speed 11 mph ()    
Max Wind Speed 23 mph    
Max Gust Speed 31 mph    
Visibility 8.5 miles    
Events Rain    
T = Trace of Precipitation, MM = Missing Value Source: Averaged Metar Reports

Daily Weather History Graph

Daily Weather History Graph

Search for Another Location

Airport or City:

Astronomy

Oct. 22, 2019 Rise Set
Actual Time 7:41 AM EDT 6:28 PM EDT
Civil Twilight 7:12 AM EDT 6:57 PM EDT
Nautical Twilight 6:40 AM EDT 7:29 PM EDT
Astronomical Twilight 6:07 AM EDT 8:01 PM EDT
Moon 12:40 AM EDT (10/22) 3:44 PM EDT (10/22)
Length of Visible Light 11h 44m
Length of Day
10h 47m
Last Quarter, 37% of the Moon is Illuminated
Oct 22
Last Quarter
Oct 27
New
Nov 4
First Quarter
Nov 12
Full
Nov 19
Last Quarter

Hourly Weather History & Observations

Time (EDT) Temp. Dew Point Humidity Pressure Visibility Wind Dir Wind Speed Gust Speed Precip Events Conditions
12:51 AM 64.0 °F 48.9 °F 58% 29.74 in 10.0 mi SSE 16.1 mph 27.6 mph 0.00 in Rain Light Rain
1:51 AM 64.0 °F 51.1 °F 63% 29.74 in 10.0 mi South 16.1 mph 25.3 mph 0.00 in   Overcast
2:51 AM 63.0 °F 51.1 °F 65% 29.76 in 10.0 mi South 11.5 mph 20.7 mph 0.00 in Rain Light Rain
3:51 AM 62.1 °F 52.0 °F 70% 29.73 in 10.0 mi South 10.4 mph - 0.00 in Rain Light Rain
4:51 AM 59.0 °F 55.0 °F 87% 29.76 in 7.0 mi South 9.2 mph - 0.04 in Rain Light Rain
5:16 AM 59.0 °F 55.0 °F 87% 29.77 in 6.0 mi WSW 5.8 mph - 0.02 in Rain Light Rain
5:40 AM 59.0 °F 55.0 °F 87% 29.76 in 9.0 mi South 6.9 mph - 0.02 in   Overcast
5:51 AM 59.0 °F 55.0 °F 87% 29.75 in 10.0 mi SSE 10.4 mph - 0.02 in Rain Light Rain
6:51 AM 60.1 °F 55.0 °F 83% 29.72 in 10.0 mi SSE 10.4 mph - 0.01 in   Overcast
7:41 AM 60.1 °F 55.9 °F 86% 29.76 in 1.8 mi SSW 9.2 mph - 0.04 in Rain Heavy Rain
7:48 AM 59.0 °F 55.4 °F 88% 29.76 in 2.0 mi South 6.9 mph - 0.09 in Rain Rain
7:51 AM 59.0 °F 55.9 °F 90% 29.75 in 2.5 mi South 6.9 mph - 0.10 in Rain Rain
7:57 AM 59.0 °F 55.9 °F 90% 29.76 in 3.0 mi South 9.2 mph - 0.02 in Rain Rain
8:18 AM 60.1 °F 55.9 °F 86% 29.77 in 4.0 mi South 17.3 mph - 0.08 in Rain Rain
8:51 AM 60.1 °F 55.9 °F 86% 29.74 in 10.0 mi SSE 9.2 mph - 0.12 in Rain Light Rain
9:51 AM 60.1 °F 55.0 °F 83% 29.75 in 10.0 mi South 10.4 mph - 0.05 in Rain Light Rain
10:51 AM 59.0 °F 53.1 °F 81% 29.72 in 10.0 mi SSE 12.7 mph - 0.06 in Rain Light Rain
11:51 AM 60.1 °F 54.0 °F 80% 29.71 in 10.0 mi South 10.4 mph - 0.01 in Rain Light Rain
12:51 PM 62.1 °F 53.1 °F 72% 29.71 in 10.0 mi South 19.6 mph 24.2 mph 0.00 in   Mostly Cloudy
1:51 PM 64.0 °F 51.1 °F 63% 29.69 in 10.0 mi South 18.4 mph 29.9 mph N/A   Partly Cloudy
2:51 PM 63.0 °F 50.0 °F 63% 29.68 in 10.0 mi South 15.0 mph - N/A   Partly Cloudy
3:51 PM 64.0 °F 51.1 °F 63% 29.68 in 10.0 mi South 10.4 mph 21.9 mph N/A   Scattered Clouds
4:51 PM 63.0 °F 51.1 °F 65% 29.69 in 10.0 mi SW 9.2 mph - 0.00 in   Scattered Clouds
5:51 PM 59.0 °F 46.0 °F 62% 29.72 in 10.0 mi WSW 12.7 mph 24.2 mph 0.00 in   Mostly Cloudy
6:51 PM 57.9 °F 45.0 °F 62% 29.75 in 10.0 mi WSW 9.2 mph 19.6 mph N/A   Mostly Cloudy
7:51 PM 57.9 °F 42.1 °F 56% 29.78 in 10.0 mi WSW 13.8 mph 21.9 mph N/A   Mostly Cloudy
8:51 PM 55.9 °F 37.9 °F 51% 29.80 in 10.0 mi SW 10.4 mph 21.9 mph N/A   Scattered Clouds
9:51 PM 55.9 °F 36.0 °F 47% 29.81 in 10.0 mi SW 12.7 mph - N/A   Overcast
10:51 PM 55.9 °F 37.0 °F 49% 29.82 in 10.0 mi SW 10.4 mph - N/A   Overcast
11:51 PM 54.0 °F 41.0 °F 62% 29.84 in 10.0 mi SW 11.5 mph 23.0 mph 0.00 in   Overcast